Accueil
METAR-TAF:

METAR-TAF

Aéroports :

Vannes, France

Aéroport de Vannes

latitude: 47-43-19N, longitude: 2-43-41W, altitude: 130 m

Observation

Le bulletin a été fait il y a 17 minutes, à 10:30 UTC
Vent 7 kt de ouest/sud-ouest, variant entre sud/sud-ouest et ouest
Température 16°C
Humidité 82%
Pression 998 hPa
Visibilité 10 km ou plus
Quelques nuages à une hauteur de 1700 ft
Nuages épars à une hauteur de 2800 ft
Nuages fragmentés à une hauteur de 12000 ft

METAR: LFRV 291030Z AUTO 25007KT 210V270 9999 FEW017 SCT028 BKN120 16/13 Q0998

Heure: 12:47 (10:47 UTC)


TAF: absent

Observations et prévisions météorologiques de plus de 4000 aéroports (messages METAR et TAF).

Les stations disponibles sont représentées par des disques jaunes et rouges sur la carte.

Passer la souris dessus pour voir le nom de la station.

Cliquer dessus pour voir les observations et prévisions météorologiques.

Pour changer de carte: cliquez sur les boutons verts avec une croix noire pour zoomer, sur le bouton vert avec un tiret pour effectuer un zoom arrière, ou sur les flèches vertes pour les cartes adjacentes.


METAR-TAF: